Hourly Data Report for October 02, 2017

All times are specified in Local Standard Time (LST). Add 1 hour to adjust for Daylight Saving Time where and when it is observed.

SACHS HARBOUR CLIMATE
NORTHWEST TERRITORIES

71°59'33.000" N
125°15'15.000" W
87.50 m
2503648
71467
WSY

Download Data

Hourly Data (October 2017)
Hourly Data Report for October 2, 2017
Temp Definition
°C
Dew Point Temp Definition
°C
Rel Hum Definition
%
Wind Dir Definition
10's deg

Wind Spd Definition
km/h
Visibility Definition
km
Stn Press Definition
kPa
Hmdx Definition


Wind Chill Definition


Weather Definition


TIME
00:00 -2.4 -4.3 87 32 34   100.29   -10 LegendNANA
01:00 -2.5 -3.7 91 31 37   100.38   -10 LegendNANA
02:00 -3.9 -4.4 97 31 36   100.48   -12 LegendNANA
03:00 -3.9 -4.3 97 31 37   100.54   -12 LegendNANA
04:00 -4.3 -5.1 94 32 36   100.61   -13 LegendNANA
05:00 -4.0 -4.9 93 33 33   100.66   -12 LegendNANA
06:00 -3.0 -3.1 99 34 33   100.76   -11 LegendNANA
07:00 -3.0 -3.5 96 34 34   100.82   -11 LegendNANA
08:00 -3.0 -3.7 95 34 33   100.91   -11 LegendNANA
09:00 -3.6 -4.2 95 34 32   100.97   -11 LegendNANA
10:00 -3.6 -4.4 95 34 28   101.04   -11 LegendNANA
11:00 -4.0 -4.9 93 33 24   101.09   -11 LegendNANA
12:00 -4.2 -5.4 91 33 23   101.11   -11 LegendNANA
13:00 -4.7 -5.6 94 34 22   101.18   -12 LegendNANA
14:00 -5.1 -6.1 93 34 24   101.21   -12 LegendNANA
15:00 -5.5 -6.6 92 35 24   101.20   -13 LegendNANA
16:00 -5.8 -6.6 94 35 25   101.19   -13 LegendNANA
17:00 -5.8 -6.4 95 1 22   101.14   -13 LegendNANA
18:00 -6.3 -6.9 96 2 20   101.17   -13 LegendNANA
19:00 -8.4 -8.8 97 2 22   101.21   -16 LegendNANA
20:00 -8.8 -9.2 97 4 16   101.26   -16 LegendNANA
21:00 -10.4 -10.9 96 1 19   101.18   -18 LegendNANA
22:00 -9.5 -10.0 96 2 24   101.16   -18 LegendNANA
23:00 -9.0 -9.4 97 2 25   101.11   -17 LegendNANA

Notes on Data Quality.

Legend

  • E = Estimated
  • M = Missing
  • NA = Not Available
  • ‡ = Partner data that is not subject to review by the National Climate Archives
Date modified: